Location: Newark
(6.1731°S, 35.7419°E)
Time: 04:41:07
(UTC+00:00)

Altair - Pass Details

Date: 25 February 2020
Orbit: 1501 x 1682 km, 47.2° (Epoch: 04 April)

Event Time Altitude Azimuth Distance (km) Brightness Sun altitude
Rises 18:14:57 0° 222° (SW) 4,663 10.8 -34.3°
Reaches altitude 10° 18:18:00 10° 223° (SW) 3,668 10.1 -35.0°
Enters shadow 18:27:06 81° 300° (WNW) 1,518 7.3 -37.2°
